Location: Elaina
(34.1445°N, 106.7742°W)
Time: 14:16:00
(UTC+00:00)

Cosmos 1892 Rocket - Pass Details

Date: 11 December 2025
Orbit: 599 x 626 km, 82.5° (Epoch: 19 January)

Event Time Altitude Azimuth Distance (km) Brightness Sun altitude
Rises 12:33:47 0° 206° (SSW) 2,854 6.9 -17.9°
Reaches altitude 10° 12:36:08 10° 215° (SW) 1,959 5.9 -17.5°
Maximum altitude 12:40:05 34° 281° (W) 1,017 4.1 -16.7°
Drops below altitude 10° 12:44:06 10° 347° (NNW) 1,986 5.9 -15.9°
Sets 12:46:31 0° 356° (N) 2,900 6.8 -15.4°
